When you browse on this site, cookies collect data to enhance your experience and personalize the content and advertising you see.
Visit our Privacy Policy to learn more. By continuing to use the site, you agree to this use of cookies and data.
  • In Deutschland
  • Länderverzeichnis
  • Für 7 Tage
  • Wassertemperatur
  • Wetterkarte
  • Widgets
  • user-avatar
    Anmelden

    Stündliche Wetter Mendoza

    Heute, 23 September, Montag

    Zeit Temperatur Niederschläge Wind Luftdruck Luftfeuchtigkeit
    00:00 +15°C° 0 mm 1 m/S 699 mmHg 32%
    01:00 +15°C° 0 mm 1 m/S 698 mmHg 35%
    02:00 +14°C° 0 mm 1 m/S 698 mmHg 36%
    03:00 +14°C° 0 mm 1 m/S 698 mmHg 38%
    04:00 +13°C° 0 mm 1 m/S 698 mmHg 39%
    05:00 +14°C° 0 mm 2 m/S 698 mmHg 36%
    06:00 +16°C° 0 mm 2 m/S 699 mmHg 33%
    07:00 +17°C° 0 mm 2 m/S 700 mmHg 30%
    08:00 +19°C° 0 mm 3 m/S 700 mmHg 27%
    09:00 +21°C° 0 mm 3 m/S 701 mmHg 25%
    10:00 +22°C° 0 mm 4 m/S 701 mmHg 22%
    11:00 +23°C° 0 mm 4 m/S 701 mmHg 20%
    12:00 +26°C° 0 mm 4 m/S 701 mmHg 18%
    13:00 +27°C° 0 mm 4 m/S 701 mmHg 17%
    14:00 +27°C° 0 mm 5 m/S 701 mmHg 17%
    15:00 +27°C° 0 mm 5 m/S 701 mmHg 18%
    16:00 +27°C° 0 mm 5 m/S 701 mmHg 18%
    17:00 +25°C° 0 mm 4 m/S 702 mmHg 23%
    18:00 +22°C° 0 mm 3 m/S 702 mmHg 28%
    19:00 +21°C° 0 mm 1 m/S 703 mmHg 33%
    20:00 +21°C° 0 mm 1 m/S 703 mmHg 34%
    21:00 +20°C° 0 mm 1 m/S 703 mmHg 36%
    22:00 +20°C° 0 mm 1 m/S 703 mmHg 37%
    23:00 +19°C° 0 mm 1 m/S 703 mmHg 37%

    Morgen, 24 September, Dienstag

    Zeit Temperatur Niederschläge Wind Luftdruck Luftfeuchtigkeit
    00:00 +19°C° 0 mm 1 m/S 703 mmHg 38%
    01:00 +18°C° 0 mm 2 m/S 703 mmHg 38%
    02:00 +18°C° 0 mm 1 m/S 703 mmHg 40%
    03:00 +16°C° 0 mm 1 m/S 703 mmHg 43%
    04:00 +15°C° 0 mm 1 m/S 703 mmHg 45%
    05:00 +18°C° 0 mm 1 m/S 703 mmHg 41%
    06:00 +19°C° 0 mm 1 m/S 704 mmHg 36%
    07:00 +21°C° 0 mm 1 m/S 705 mmHg 32%
    08:00 +22°C° 0 mm 1 m/S 705 mmHg 30%
    09:00 +24°C° 0 mm 1 m/S 705 mmHg 28%
    10:00 +25°C° 0 mm 2 m/S 705 mmHg 26%
    11:00 +26°C° 0 mm 2 m/S 704 mmHg 24%
    12:00 +27°C° 0 mm 2 m/S 704 mmHg 22%
    13:00 +28°C° 0 mm 2 m/S 704 mmHg 21%
    14:00 +28°C° 0 mm 2 m/S 703 mmHg 20%
    15:00 +28°C° 0 mm 2 m/S 703 mmHg 20%
    16:00 +28°C° 0 mm 2 m/S 703 mmHg 19%
    17:00 +27°C° 0 mm 2 m/S 703 mmHg 22%
    18:00 +25°C° 0 mm 2 m/S 703 mmHg 25%
    19:00 +23°C° 0 mm 1 m/S 704 mmHg 27%
    20:00 +23°C° 0 mm 1 m/S 704 mmHg 29%
    21:00 +22°C° 0 mm 1 m/S 704 mmHg 31%
    22:00 +21°C° 0 mm 1 m/S 704 mmHg 33%
    23:00 +20°C° 0 mm 1 m/S 703 mmHg 34%

    übermorgen, 25 September, Mittwoch

    Zeit Temperatur Niederschläge Wind Luftdruck Luftfeuchtigkeit
    00:00 +20°C° 0 mm 1 m/S 703 mmHg 36%
    01:00 +19°C° 0 mm 1 m/S 703 mmHg 37%
    02:00 +19°C° 0 mm 1 m/S 703 mmHg 38%
    03:00 +18°C° 0 mm 1 m/S 702 mmHg 39%
    04:00 +18°C° 0 mm 1 m/S 702 mmHg 39%
    05:00 +19°C° 0 mm 1 m/S 702 mmHg 36%
    06:00 +21°C° 0 mm 1 m/S 703 mmHg 32%
    07:00 +23°C° 0 mm 1 m/S 703 mmHg 28%
    08:00 +25°C° 0 mm 2 m/S 703 mmHg 25%
    09:00 +27°C° 0 mm 4 m/S 703 mmHg 22%
    10:00 +29°C° 0 mm 5 m/S 702 mmHg 19%
    11:00 +30°C° 0 mm 6 m/S 702 mmHg 17%
    12:00 +33°C° 0 mm 6 m/S 701 mmHg 15%
    13:00 +34°C° 0 mm 7 m/S 701 mmHg 13%
    14:00 +34°C° 0 mm 7 m/S 700 mmHg 13%
    15:00 +34°C° 0 mm 6 m/S 700 mmHg 13%
    16:00 +34°C° 0 mm 6 m/S 699 mmHg 12%
    17:00 +32°C° 0 mm 5 m/S 699 mmHg 15%
    18:00 +29°C° 0 mm 4 m/S 699 mmHg 17%
    19:00 +27°C° 0 mm 3 m/S 699 mmHg 19%
    20:00 +25°C° 0 mm 3 m/S 699 mmHg 23%
    21:00 +24°C° 0 mm 2 m/S 699 mmHg 26%
    22:00 +23°C° 0 mm 2 m/S 699 mmHg 29%
    23:00 +21°C° 0 mm 2 m/S 699 mmHg 31%

    26 September, Donnerstag

    Zeit Temperatur Niederschläge Wind Luftdruck Luftfeuchtigkeit
    00:00 +20°C° 0 mm 2 m/S 698 mmHg 33%
    01:00 +20°C° 0 mm 2 m/S 698 mmHg 35%
    02:00 +19°C° 0 mm 2 m/S 698 mmHg 36%
    03:00 +19°C° 0 mm 1 m/S 698 mmHg 38%
    04:00 +18°C° 0 mm 1 m/S 698 mmHg 40%
    05:00 +19°C° 0 mm 2 m/S 698 mmHg 36%
    06:00 +20°C° 0 mm 2 m/S 699 mmHg 32%
    07:00 +21°C° 0 mm 2 m/S 699 mmHg 29%
    08:00 +24°C° 0 mm 2 m/S 699 mmHg 27%
    09:00 +26°C° 0 mm 2 m/S 700 mmHg 25%
    10:00 +27°C° 0 mm 2 m/S 700 mmHg 23%
    11:00 +28°C° 0 mm 2 m/S 699 mmHg 22%
    12:00 +29°C° 0 mm 2 m/S 699 mmHg 20%
    13:00 +30°C° 0 mm 2 m/S 698 mmHg 19%
    14:00 +30°C° 0 mm 2 m/S 698 mmHg 18%
    15:00 +30°C° 0 mm 2 m/S 697 mmHg 18%
    16:00 +31°C° 0 mm 2 m/S 697 mmHg 17%
    17:00 +29°C° 0 mm 2 m/S 697 mmHg 20%
    18:00 +27°C° 0 mm 2 m/S 697 mmHg 23%
    19:00 +26°C° 0 mm 2 m/S 697 mmHg 26%
    20:00 +24°C° 0 mm 2 m/S 696 mmHg 29%
    21:00 +23°C° 0 mm 2 m/S 696 mmHg 31%
    22:00 +22°C° 0 mm 1 m/S 695 mmHg 34%
    23:00 +22°C° 0 mm 1 m/S 695 mmHg 35%

    27 September, Freitag

    Zeit Temperatur Niederschläge Wind Luftdruck Luftfeuchtigkeit
    00:00 +20°C° 0 mm 2 m/S 695 mmHg 36%
    01:00 +19°C° 0 mm 2 m/S 695 mmHg 38%
    02:00 +19°C° 0 mm 2 m/S 695 mmHg 40%
    03:00 +18°C° 0 mm 2 m/S 695 mmHg 41%
    04:00 +18°C° 0 mm 1 m/S 695 mmHg 43%
    05:00 +18°C° 0 mm 2 m/S 696 mmHg 40%
    06:00 +19°C° 0 mm 2 m/S 696 mmHg 38%
    07:00 +20°C° 0 mm 2 m/S 697 mmHg 35%
    08:00 +23°C° 0 mm 2 m/S 697 mmHg 32%
    09:00 +25°C° 0 mm 2 m/S 697 mmHg 28%
    10:00 +26°C° 0 mm 2 m/S 697 mmHg 25%
    11:00 +28°C° 0 mm 2 m/S 697 mmHg 23%
    12:00 +29°C° 0 mm 2 m/S 697 mmHg 21%
    13:00 +30°C° 0 mm 2 m/S 696 mmHg 19%
    14:00 +30°C° 0 mm 2 m/S 696 mmHg 18%
    15:00 +31°C° 0 mm 2 m/S 696 mmHg 17%
    16:00 +31°C° 0 mm 3 m/S 696 mmHg 16%
    17:00 +29°C° 0 mm 3 m/S 697 mmHg 19%
    18:00 +27°C° 0 mm 2 m/S 697 mmHg 22%
    19:00 +26°C° 0 mm 2 m/S 697 mmHg 25%
    20:00 +25°C° 0 mm 2 m/S 697 mmHg 28%
    21:00 +23°C° 0 mm 1 m/S 697 mmHg 32%
    22:00 +22°C° 0 mm 1 m/S 697 mmHg 36%
    23:00 +22°C° 0 mm 1 m/S 697 mmHg 35%

    28 September, Samstag

    Zeit Temperatur Niederschläge Wind Luftdruck Luftfeuchtigkeit
    00:00 +21°C° 0 mm 1 m/S 697 mmHg 35%
    01:00 +21°C° 0 mm 1 m/S 697 mmHg 34%
    02:00 +20°C° 0 mm 2 m/S 698 mmHg 31%
    03:00 +20°C° 0 mm 3 m/S 698 mmHg 28%
    04:00 +20°C° 0 mm 3 m/S 698 mmHg 25%
    05:00 +21°C° 0 mm 3 m/S 698 mmHg 24%
    06:00 +21°C° 0 mm 3 m/S 699 mmHg 23%
    07:00 +22°C° 0 mm 3 m/S 699 mmHg 21%
    08:00 +24°C° 0 mm 3 m/S 699 mmHg 21%
    09:00 +26°C° 0 mm 3 m/S 699 mmHg 21%
    10:00 +27°C° 0 mm 3 m/S 699 mmHg 21%
    11:00 +28°C° 0 mm 3 m/S 699 mmHg 20%
    12:00 +28°C° 0 mm 3 m/S 698 mmHg 20%
    13:00 +29°C° 0 mm 2 m/S 697 mmHg 20%
    14:00 +30°C° 0 mm 2 m/S 697 mmHg 19%
    15:00 +30°C° 0 mm 2 m/S 697 mmHg 18%
    16:00 +30°C° 0 mm 1 m/S 696 mmHg 18%
    17:00 +29°C° 0 mm 2 m/S 696 mmHg 20%
    18:00 +27°C° 0 mm 2 m/S 696 mmHg 21%
    19:00 +26°C° 0 mm 2 m/S 696 mmHg 23%
    20:00 +25°C° 0 mm 2 m/S 696 mmHg 24%
    21:00 +24°C° 0 mm 1 m/S 696 mmHg 24%
    22:00 +23°C° 0 mm 1 m/S 696 mmHg 25%
    23:00 +23°C° 0 mm 1 m/S 695 mmHg 26%
    Mehr zeigen